KATL

Atlanta/Hartsfield-Jackson International

Airport
ICAO code
KATL
IATA Code
ATL
Summary
ICAO Region
NAM
ICAO Territory
Location

Atlanta, Georgia

Serving
Atlanta
Elevation
1026 ft
Coordinates
33° 38' 25" N , 84° 25' 38" W
KCC
Airport LOS
Parallel Runway Operation
Metar
Observation
KATL 280952Z 35008KT 10SM FEW200 14/03 A3016 RMK AO2 SLP207 T01390033
Station
Atlanta, Hartsfield - Jackson Atlanta International Airport
Date/Time
2022-09-28 09:52:00
Wind direction
350°
Wind speed
08 kts
Lowest cloud amount
few clouds
Temperature
13.9°C
Dew point
3.3°C
Humidity
48%
Weather condition
n/a

Description

International airport serving Atlanta, Georgia.

Climatology

Humid “subtropical” climate (Köppen climate classification Cfa) - characterized by hot, humid summers and cool winters. Significant amounts of precipitation occur in all seasons in most areas. Winter rainfall (and sometimes snowfall) is associated with large storms that the westerlies steer from west to east. Most summer rainfall occurs during thunderstorms and occasional tropical storms (hurricanes).

SKYbrary Partners:

Safety knowledge contributed by: